Time,TemperatureF,DewpointF,PressureIn,WindDirection,WindDirectionDegrees,WindSpeedMPH,WindSpeedGustMPH,Humidity,HourlyPrecipIn,Conditions,Clouds,dailyrainin,SoftwareType,DateUTC
2013-03-03 00:02:00,50.0,44.0,29.99,ENE,68,0.0,2.0,80,0.03,,,0.06,,2013-03-03 06:02:00,
2013-03-03 00:11:00,50.0,44.0,29.99,ENE,68,0.0,2.0,80,0.03,,,0.06,,2013-03-03 06:11:00,
2013-03-03 00:21:00,50.0,44.0,29.99,ENE,68,0.0,1.0,80,0.01,,,0.06,,2013-03-03 06:21:00,
2013-03-03 00:32:00,50.0,44.0,29.99,ENE,68,0.0,2.0,81,0.01,,,0.06,,2013-03-03 06:32:00,
2013-03-03 00:42:00,50.0,44.0,29.99,ENE,68,0.0,2.0,81,0.01,,,0.06,,2013-03-03 06:42:00,
2013-03-03 00:52:00,50.0,45.0,29.99,NNE,23,0.0,1.0,82,0.01,,,0.07,,2013-03-03 06:52:00,
2013-03-03 01:01:00,50.0,45.0,29.99,ESE,113,1.0,1.0,82,0.03,,,0.09,,2013-03-03 07:01:00,
2013-03-03 01:11:00,50.0,45.0,29.99,ESE,113,1.0,1.0,82,0.03,,,0.09,,2013-03-03 07:11:00,
2013-03-03 01:21:00,50.0,45.0,29.98,ESE,113,0.0,1.0,82,0.05,,,0.11,,2013-03-03 07:21:00,
2013-03-03 01:32:00,50.0,45.0,29.99,ENE,68,0.0,0.0,82,0.05,,,0.11,,2013-03-03 07:32:00,
2013-03-03 01:42:00,50.0,45.0,29.99,ENE,68,0.0,0.0,82,0.05,,,0.11,,2013-03-03 07:42:00,
2013-03-03 01:52:00,50.0,45.0,29.98,NNE,23,1.0,1.0,83,0.04,,,0.12,,2013-03-03 07:52:00,
2013-03-03 02:01:00,50.0,45.0,29.97,East,90,1.0,1.0,84,0.03,,,0.12,,2013-03-03 08:01:00,
2013-03-03 02:11:00,50.0,45.0,29.97,East,90,1.0,1.0,84,0.03,,,0.12,,2013-03-03 08:11:00,
2013-03-03 02:21:00,50.0,45.0,29.95,NE,45,1.0,1.0,84,0.01,,,0.12,,2013-03-03 08:21:00,
2013-03-03 02:31:00,50.0,45.0,29.95,ENE,62,1.0,1.0,84,0.01,,,0.12,,2013-03-03 08:31:00,
2013-03-03 02:42:00,50.0,45.0,29.95,ENE,62,1.0,1.0,84,0.01,,,0.12,,2013-03-03 08:42:00,
2013-03-03 02:54:00,50.0,45.0,29.95,ESE,113,0.0,0.0,84,0.01,,,0.13,,2013-03-03 08:54:00,
2013-03-03 03:01:00,50.0,45.0,29.95,ESE,113,0.0,0.0,84,0.01,,,0.13,,2013-03-03 09:01:00,
2013-03-03 03:12:00,50.0,45.0,29.95,ESE,113,0.0,0.0,84,0.01,,,0.13,,2013-03-03 09:12:00,
2013-03-03 03:21:00,50.0,46.0,29.95,SE,135,0.0,1.0,85,0.01,,,0.13,,2013-03-03 09:21:00,
2013-03-03 03:32:00,50.0,46.0,29.95,SE,135,0.0,1.0,85,0.01,,,0.13,,2013-03-03 09:32:00,
2013-03-03 03:42:00,50.0,46.0,29.95,SE,135,0.0,1.0,85,0.01,,,0.13,,2013-03-03 09:42:00,
2013-03-03 03:52:00,50.0,46.0,29.95,ENE,68,0.0,0.0,85,0.01,,,0.14,,2013-03-03 09:52:00,
2013-03-03 04:01:00,50.0,46.0,29.95,SE,127,1.0,1.0,85,0.01,,,0.14,,2013-03-03 10:01:00,
2013-03-03 04:11:00,50.0,46.0,29.95,SE,127,1.0,1.0,85,0.01,,,0.14,,2013-03-03 10:11:00,
2013-03-03 04:21:00,50.0,46.0,29.95,ENE,72,1.0,1.0,86,0.01,,,0.14,,2013-03-03 10:21:00,
2013-03-03 04:32:00,50.0,46.0,29.95,ENE,74,1.0,2.0,86,0.01,,,0.14,,2013-03-03 10:32:00,
2013-03-03 04:42:00,50.0,46.0,29.95,ENE,74,1.0,2.0,86,0.01,,,0.14,,2013-03-03 10:42:00,
2013-03-03 04:52:00,50.0,46.0,29.96,ENE,68,1.0,1.0,86,0.00,,,0.14,,2013-03-03 10:52:00,
2013-03-03 05:01:00,50.0,46.0,29.96,SSE,158,1.0,2.0,86,0.01,,,0.15,,2013-03-03 11:01:00,
2013-03-03 05:11:00,50.0,46.0,29.96,SSE,158,1.0,2.0,86,0.01,,,0.15,,2013-03-03 11:11:00,
2013-03-03 05:22:00,50.0,46.0,29.95,East,90,1.0,2.0,85,0.01,,,0.15,,2013-03-03 11:22:00,
2013-03-03 05:32:00,50.0,46.0,29.96,East,90,1.0,2.0,85,0.01,,,0.15,,2013-03-03 11:32:00,
2013-03-03 05:42:00,50.0,46.0,29.96,East,90,1.0,2.0,85,0.01,,,0.15,,2013-03-03 11:42:00,
2013-03-03 05:53:00,50.0,46.0,29.96,ESE,113,1.0,2.0,85,0.01,,,0.15,,2013-03-03 11:53:00,
2013-03-03 06:01:00,49.0,45.0,29.97,ENE,68,0.0,2.0,85,0.00,,,0.15,,2013-03-03 12:01:00,
2013-03-03 06:11:00,49.0,45.0,29.97,ENE,68,0.0,2.0,85,0.00,,,0.15,,2013-03-03 12:11:00,
2013-03-03 06:21:00,50.0,46.0,29.97,NE,45,1.0,2.0,86,0.00,,,0.15,,2013-03-03 12:21:00,
2013-03-03 06:32:00,50.0,46.0,29.99,NNE,15,2.0,2.0,86,0.00,,,0.15,,2013-03-03 12:32:00,
2013-03-03 06:43:00,50.0,46.0,29.99,NNE,15,2.0,2.0,86,0.00,,,0.15,,2013-03-03 12:43:00,
2013-03-03 06:53:00,50.0,46.0,29.99,NE,45,0.0,2.0,86,0.00,,,0.15,,2013-03-03 12:53:00,
2013-03-03 07:01:00,50.0,46.0,29.99,North,0,1.0,2.0,86,0.00,,,0.15,,2013-03-03 13:01:00,
2013-03-03 07:11:00,50.0,46.0,29.99,North,0,1.0,2.0,86,0.00,,,0.15,,2013-03-03 13:11:00,
2013-03-03 07:22:00,51.0,47.0,30.00,North,10,1.0,2.0,86,0.00,,,0.15,,2013-03-03 13:22:00,
2013-03-03 07:32:00,51.0,47.0,30.00,North,10,1.0,2.0,86,0.00,,,0.15,,2013-03-03 13:32:00,
2013-03-03 07:42:00,51.0,47.0,30.00,North,10,1.0,2.0,86,0.00,,,0.15,,2013-03-03 13:42:00,
2013-03-03 07:52:00,53.0,49.0,30.00,ENE,68,0.0,1.0,85,0.00,,,0.15,,2013-03-03 13:52:00,
2013-03-03 08:02:00,52.0,47.0,30.01,NE,40,1.0,3.0,84,0.00,,,0.15,,2013-03-03 14:02:00,
2013-03-03 08:11:00,52.0,47.0,30.01,NE,40,1.0,3.0,84,0.00,,,0.15,,2013-03-03 14:11:00,
2013-03-03 08:21:00,52.0,47.0,30.02,NW,322,5.0,9.0,84,0.00,,,0.15,,2013-03-03 14:21:00,
2013-03-03 08:32:00,49.0,44.0,30.04,NW,308,2.0,5.0,84,0.00,,,0.15,,2013-03-03 14:32:00,
2013-03-03 08:42:00,49.0,44.0,30.04,NW,308,2.0,5.0,84,0.00,,,0.15,,2013-03-03 14:42:00,
2013-03-03 08:52:00,48.0,43.0,30.04,North,10,2.0,6.0,84,0.00,,,0.15,,2013-03-03 14:52:00,
2013-03-03 09:02:00,48.0,43.0,30.04,ENE,62,1.0,4.0,83,0.00,,,0.15,,2013-03-03 15:02:00,
2013-03-03 09:11:00,48.0,43.0,30.04,ENE,62,1.0,4.0,83,0.00,,,0.15,,2013-03-03 15:11:00,
2013-03-03 09:22:00,50.0,45.0,30.04,NE,37,1.0,4.0,82,0.00,,,0.15,,2013-03-03 15:22:00,
2013-03-03 09:32:00,51.0,44.0,30.04,NNE,28,1.0,4.0,78,0.00,,,0.15,,2013-03-03 15:32:00,
2013-03-03 09:42:00,51.0,44.0,30.04,NNE,28,1.0,4.0,78,0.00,,,0.15,,2013-03-03 15:42:00,
2013-03-03 09:52:00,52.0,45.0,30.03,East,85,2.0,3.0,78,0.00,,,0.15,,2013-03-03 15:52:00,
2013-03-03 10:02:00,54.0,46.0,30.04,NNE,23,4.0,4.0,73,0.00,,,0.15,,2013-03-03 16:02:00,
2013-03-03 10:12:00,54.0,46.0,30.04,NNE,23,4.0,4.0,73,0.00,,,0.15,,2013-03-03 16:12:00,
2013-03-03 10:22:00,55.0,46.0,30.04,North,0,3.0,5.0,72,0.00,,,0.15,,2013-03-03 16:22:00,
2013-03-03 10:32:00,56.0,44.0,30.04,North,356,5.0,5.0,65,0.00,,,0.15,,2013-03-03 16:32:00,
2013-03-03 10:42:00,56.0,44.0,30.04,North,356,5.0,5.0,65,0.00,,,0.15,,2013-03-03 16:42:00,
2013-03-03 10:52:00,58.0,46.0,30.04,NNE,22,3.0,5.0,64,0.00,,,0.15,,2013-03-03 16:52:00,
2013-03-03 11:01:00,58.0,44.0,30.03,North,4,2.0,6.0,60,0.00,,,0.15,,2013-03-03 17:01:00,
2013-03-03 11:11:00,58.0,44.0,30.03,North,4,2.0,6.0,60,0.00,,,0.15,,2013-03-03 17:11:00,
2013-03-03 11:22:00,58.0,44.0,30.03,North,4,2.0,6.0,60,0.00,,,0.15,,2013-03-03 17:22:00,
2013-03-03 11:32:00,58.0,44.0,30.03,North,4,2.0,6.0,60,0.00,,,0.15,,2013-03-03 17:32:00,
2013-03-03 11:42:00,58.0,44.0,30.03,North,4,2.0,6.0,60,0.00,,,0.15,,2013-03-03 17:42:00,
2013-03-03 11:52:00,60.0,44.0,30.01,NW,323,8.0,10.0,56,0.00,,,0.15,,2013-03-03 17:52:00,
2013-03-03 12:02:00,60.0,44.0,30.01,South,180,6.0,9.0,56,0.00,,,0.15,,2013-03-03 18:02:00,
2013-03-03 12:11:00,60.0,44.0,30.01,South,180,6.0,9.0,56,0.00,,,0.15,,2013-03-03 18:11:00,
2013-03-03 12:21:00,60.0,43.0,30.01,NW,305,3.0,9.0,54,0.00,,,0.15,,2013-03-03 18:21:00,
2013-03-03 12:32:00,61.0,44.0,30.01,WSW,256,8.0,10.0,53,0.00,,,0.15,,2013-03-03 18:32:00,
2013-03-03 12:42:00,61.0,44.0,30.01,WSW,256,8.0,10.0,53,0.00,,,0.15,,2013-03-03 18:42:00,
2013-03-03 12:52:00,60.0,44.0,30.00,West,264,9.0,11.0,55,0.00,,,0.15,,2013-03-03 18:52:00,
2013-03-03 13:02:00,61.0,44.0,30.01,WNW,302,7.0,9.0,54,0.00,,,0.15,,2013-03-03 19:02:00,
2013-03-03 13:11:00,60.0,45.0,30.00,WNW,303,6.0,12.0,57,0.00,,,0.15,,2013-03-03 19:11:00,
2013-03-03 13:22:00,60.0,45.0,30.00,WNW,303,6.0,12.0,57,0.00,,,0.15,,2013-03-03 19:22:00,
2013-03-03 13:32:00,60.0,44.0,30.01,NW,306,11.0,13.0,56,0.00,,,0.15,,2013-03-03 19:32:00,
2013-03-03 13:42:00,60.0,44.0,30.01,NW,306,11.0,13.0,56,0.00,,,0.15,,2013-03-03 19:42:00,
2013-03-03 13:52:00,60.0,45.0,30.01,WNW,292,7.0,11.0,58,0.00,,,0.15,,2013-03-03 19:52:00,
2013-03-03 14:01:00,60.0,45.0,30.01,WSW,248,8.0,9.0,57,0.00,,,0.15,,2013-03-03 20:01:00,
2013-03-03 14:11:00,60.0,45.0,30.01,WSW,248,8.0,9.0,57,0.00,,,0.15,,2013-03-03 20:11:00,
2013-03-03 14:22:00,59.0,44.0,30.01,West,276,9.0,12.0,58,0.00,,,0.15,,2013-03-03 20:22:00,
2013-03-03 14:32:00,59.0,45.0,30.01,WSW,248,10.0,10.0,60,0.00,,,0.15,,2013-03-03 20:32:00,
2013-03-03 14:42:00,59.0,45.0,30.01,WSW,248,10.0,10.0,60,0.00,,,0.15,,2013-03-03 20:42:00,
2013-03-03 14:53:00,59.0,46.0,30.01,WSW,248,12.0,13.0,61,0.00,,,0.15,,2013-03-03 20:53:00,
2013-03-03 15:02:00,59.0,46.0,30.01,WNW,293,10.0,11.0,61,0.00,,,0.15,,2013-03-03 21:02:00,
2013-03-03 15:11:00,59.0,46.0,30.01,WNW,293,10.0,11.0,61,0.00,,,0.15,,2013-03-03 21:11:00,
2013-03-03 15:22:00,58.0,45.0,30.02,NW,315,5.0,8.0,63,0.00,,,0.15,,2013-03-03 21:22:00,
2013-03-03 15:32:00,58.0,46.0,30.02,WNW,294,5.0,8.0,64,0.00,,,0.15,,2013-03-03 21:32:00,
2013-03-03 15:42:00,58.0,46.0,30.02,WNW,294,5.0,8.0,64,0.00,,,0.15,,2013-03-03 21:42:00,
2013-03-03 15:52:00,60.0,47.0,30.02,West,277,6.0,10.0,63,0.00,,,0.15,,2013-03-03 21:52:00,
2013-03-03 16:02:00,58.0,46.0,30.03,South,180,7.0,8.0,65,0.00,,,0.15,,2013-03-03 22:02:00,
2013-03-03 16:11:00,58.0,46.0,30.03,South,180,7.0,8.0,65,0.00,,,0.15,,2013-03-03 22:11:00,
2013-03-03 16:22:00,60.0,47.0,30.03,WNW,290,9.0,12.0,63,0.00,,,0.15,,2013-03-03 22:22:00,
2013-03-03 16:32:00,58.0,46.0,30.03,NNW,346,7.0,12.0,65,0.00,,,0.15,,2013-03-03 22:32:00,
2013-03-03 16:42:00,58.0,46.0,30.03,NNW,346,7.0,12.0,65,0.00,,,0.15,,2013-03-03 22:42:00,
2013-03-03 16:52:00,58.0,46.0,30.03,NNW,346,7.0,12.0,65,0.00,,,0.15,,2013-03-03 22:52:00,
2013-03-03 17:01:00,59.0,48.0,30.04,WNW,292,4.0,7.0,67,0.00,,,0.15,,2013-03-03 23:01:00,
2013-03-03 17:11:00,59.0,48.0,30.04,WNW,292,4.0,7.0,67,0.00,,,0.15,,2013-03-03 23:11:00,
2013-03-03 17:22:00,59.0,48.0,30.04,West,273,6.0,9.0,67,0.00,,,0.15,,2013-03-03 23:22:00,
2013-03-03 17:32:00,57.0,47.0,30.04,WSW,248,2.0,4.0,70,0.00,,,0.15,,2013-03-03 23:32:00,
2013-03-03 17:42:00,57.0,47.0,30.04,WSW,248,2.0,4.0,70,0.00,,,0.15,,2013-03-03 23:42:00,
2013-03-03 17:52:00,56.0,47.0,30.04,WNW,292,4.0,5.0,72,0.00,,,0.15,,2013-03-03 23:52:00,
2013-03-03 18:02:00,55.0,47.0,30.04,WNW,285,3.0,4.0,73,0.00,,,0.15,,2013-03-04 00:02:00,
2013-03-03 18:11:00,55.0,47.0,30.04,WNW,285,3.0,4.0,73,0.00,,,0.15,,2013-03-04 00:11:00,
2013-03-03 18:21:00,55.0,47.0,30.04,WNW,285,3.0,4.0,73,0.00,,,0.15,,2013-03-04 00:21:00,
2013-03-03 18:32:00,55.0,47.0,30.05,WNW,301,2.0,2.0,74,0.00,,,0.15,,2013-03-04 00:32:00,
2013-03-03 18:42:00,55.0,47.0,30.05,WNW,301,2.0,2.0,74,0.00,,,0.15,,2013-03-04 00:42:00,
2013-03-03 18:52:00,55.0,47.0,30.05,WNW,301,2.0,2.0,74,0.00,,,0.15,,2013-03-04 00:52:00,
2013-03-03 19:02:00,55.0,45.0,30.06,NW,326,3.0,6.0,70,0.00,,,0.15,,2013-03-04 01:02:00,
2013-03-03 19:12:00,55.0,45.0,30.06,NW,326,3.0,6.0,70,0.00,,,0.15,,2013-03-04 01:12:00,
2013-03-03 19:21:00,56.0,46.0,30.06,WNW,293,3.0,6.0,69,0.00,,,0.15,,2013-03-04 01:21:00,
2013-03-03 19:32:00,57.0,45.0,30.07,WNW,283,6.0,8.0,65,0.00,,,0.15,,2013-03-04 01:32:00,
2013-03-03 19:42:00,57.0,45.0,30.07,WNW,283,6.0,8.0,65,0.00,,,0.15,,2013-03-04 01:42:00,
2013-03-03 19:52:00,57.0,45.0,30.08,WNW,303,4.0,7.0,65,0.00,,,0.15,,2013-03-04 01:52:00,
2013-03-03 20:01:00,56.0,46.0,30.09,NE,45,0.0,1.0,69,0.00,,,0.15,,2013-03-04 02:01:00,
2013-03-03 20:11:00,56.0,46.0,30.09,NE,45,0.0,1.0,69,0.00,,,0.15,,2013-03-04 02:11:00,
2013-03-03 20:22:00,55.0,46.0,30.09,ENE,68,1.0,1.0,72,0.00,,,0.15,,2013-03-04 02:22:00,
2013-03-03 20:32:00,53.0,45.0,30.10,NNE,23,0.0,2.0,73,0.00,,,0.15,,2013-03-04 02:32:00,
2013-03-03 20:42:00,53.0,45.0,30.10,NNE,23,0.0,2.0,73,0.00,,,0.15,,2013-03-04 02:42:00,
2013-03-03 20:52:00,53.0,45.0,30.10,NE,45,1.0,2.0,75,0.00,,,0.15,,2013-03-04 02:52:00,
2013-03-03 21:02:00,53.0,46.0,30.11,NNE,22,1.0,2.0,76,0.00,,,0.15,,2013-03-04 03:02:00,
2013-03-03 21:11:00,53.0,46.0,30.11,NNE,22,1.0,2.0,76,0.00,,,0.15,,2013-03-04 03:11:00,
2013-03-03 21:22:00,53.0,46.0,30.11,NNE,22,1.0,2.0,76,0.00,,,0.15,,2013-03-04 03:22:00,
2013-03-03 21:32:00,52.0,45.0,30.11,NNE,33,1.0,3.0,78,0.00,,,0.15,,2013-03-04 03:32:00,
2013-03-03 21:42:00,51.0,44.0,30.11,NE,55,1.0,2.0,78,0.00,,,0.15,,2013-03-04 03:42:00,
2013-03-03 21:53:00,51.0,44.0,30.11,NE,55,1.0,2.0,78,0.00,,,0.15,,2013-03-04 03:53:00,
2013-03-03 22:01:00,51.0,45.0,30.11,ENE,68,0.0,2.0,79,0.00,,,0.15,,2013-03-04 04:01:00,
2013-03-03 22:11:00,51.0,45.0,30.11,ENE,68,0.0,2.0,79,0.00,,,0.15,,2013-03-04 04:11:00,
2013-03-03 22:22:00,50.0,44.0,30.11,East,90,1.0,1.0,80,0.00,,,0.15,,2013-03-04 04:22:00,
2013-03-03 22:32:00,49.0,43.0,30.11,NW,324,4.0,7.0,80,0.00,,,0.10,,2013-03-04 04:32:00,
2013-03-03 22:42:00,49.0,43.0,30.11,NW,324,4.0,7.0,80,0.00,,,0.10,,2013-03-04 04:42:00,
2013-03-03 22:52:00,53.0,44.0,30.11,NNW,345,3.0,4.0,72,0.00,,,0.10,,2013-03-04 04:52:00,
2013-03-03 23:01:00,54.0,46.0,30.12,ESE,105,1.0,5.0,73,0.00,,,0.10,,2013-03-04 05:01:00,
2013-03-03 23:11:00,54.0,46.0,30.12,ESE,105,1.0,5.0,73,0.00,,,0.10,,2013-03-04 05:11:00,
2013-03-03 23:22:00,51.0,43.0,30.12,ENE,66,2.0,3.0,75,0.00,,,0.10,,2013-03-04 05:22:00,
2013-03-03 23:32:00,50.0,43.0,30.12,ENE,64,1.0,3.0,76,0.00,,,0.09,,2013-03-04 05:32:00,
2013-03-03 23:42:00,48.0,41.0,30.11,NE,45,0.0,2.0,78,0.00,,,0.09,,2013-03-04 05:42:00,
2013-03-03 23:52:00,48.0,41.0,30.11,NE,45,0.0,2.0,78,0.00,,,0.09,,2013-03-04 05:52:00,